Location: Cahoon Acres
(40.8736°N, 111.8994°W)
Time: 21:05:32
(UTC+00:00)

Vanguard 1 - Visible Passes

Search period start: 25 May 2020 00:00
Search period end: 04 June 2020 00:00
Orbit: 649 x 3834 km, 34.3° (Epoch: 23 May)

Date Brightness Start Highest point End Pass type
(mag) Time Alt. Az. Time Alt. Az. Time Alt. Az.
26 May 13.7 10:26:55 10° SSE 10:34:33 14° ESE 10:43:22 10° E visible
27 May 13.5 10:43:46 10° SSE 10:54:35 21° SE 11:08:09 10° E visible
28 May 13.3 11:02:13 10° S 11:14:43 27° SE 11:31:19 10° E visible
29 May 13.2 11:21:25 10° SSW 11:34:59 35° SE 11:53:45 10° E visible
30 May 13.4 09:30:32 10° SE 09:35:11 12° ESE 09:40:27 10° ESE visible
31 May 13.2 09:46:37 10° SSE 09:55:07 18° SE 10:06:08 10° E visible
01 Jun 13.0 10:04:56 10° S 10:15:08 25° SE 10:29:30 10° E visible
02 Jun 12.9 10:24:10 10° SSW 10:35:18 32° SE 10:52:02 10° E visible
03 Jun 12.8 10:43:49 10° SSW 10:55:37 40° SE 11:14:08 10° E visible
